Flag for Spain Weather past 2 weeks in Las Palmas, Canary Islands, Spain

Now
72 °F

Passing clouds.


Feels Like: 72 °F
Forecast: 70 / 77 °F
Wind: 20 mph from North

Location: Las Palmas De Gran Canaria / Gando

Current Time: Jul 2, 2015 at 2:24:33 AM

Latest Report: Jul 2, 2015 at 2:00 AM


Visibility: N/A

Pressure: 30.09 "Hg

Humidity: 78%

Dew point: 64 °F

Location of Las PalmasLocation

Historic Weather in Las Palmas — Graph

°F

Las Palmas temperature yesterday

Maximum temperature yesterday: 79 °F (at 2:30 PM)
Minimum temperature yesterday: 68 °F (at 6:00 AM)
Average temperature yesterday: 73 °F

Past Weeks' High & Low Weather Summary

 TemperatureHumidityPressure
High81 °F (Jun 23, 2:30 PM)88% (Jun 30, 3:30 AM)30.18 "Hg (Jun 30, 3:30 AM)
Low66 °F (Jun 19, 4:30 AM)44% (Jun 24, 10:00 AM)30.01 "Hg (Jun 18, 5:30 PM)
Average72 °F66%30.10 "Hg
* Reported Jun 17 1:00 AM — Jul 2 1:00 AM, Las Palmas, Weather by CustomWeather, © 2015

Note: Actual official high and low records may vary slightly from our data, if they occured in-between our weather recording intervals... More about our weather records

Advertising

Las Palmas weather history for previous 24 hours

 ConditionsComfort  
Time TempWeatherWind HumidityBarometerVisibility
1:00 AM
Thu, Jul 2
72 °FPassing clouds.21 mph73%30.12 "HgN/A
12:30 AM72 °FPassing clouds.18 mph73%30.12 "HgN/A
12:00 AM72 °FPassing clouds.18 mph73%30.12 "HgN/A
11:30 PM
Wed, Jul 1
72 °FPassing clouds.18 mph73%30.12 "HgN/A
10:30 PM72 °FPassing clouds.21 mph69%30.09 "HgN/A
10:00 PM72 °FPassing clouds.21 mph69%30.09 "HgN/A
9:30 PM72 °FPassing clouds.23 mph69%30.09 "HgN/A
9:00 PM72 °FPassing clouds.21 mph73%30.09 "HgN/A
8:30 PM73 °FPassing clouds.21 mph69%30.07 "HgN/A
8:00 PM73 °FPassing clouds.24 mph65%30.07 "HgN/A
7:30 PM75 °FPassing clouds.24 mph61%30.07 "HgN/A
7:00 PM75 °FPassing clouds.28 mph61%30.04 "HgN/A
6:30 PM77 °FPassing clouds.28 mph57%30.04 "HgN/A
6:00 PM75 °FPassing clouds.30 mph61%30.04 "HgN/A
5:30 PM75 °FPassing clouds.30 mph61%30.07 "HgN/A
5:00 PM77 °FPassing clouds.28 mph57%30.07 "HgN/A
4:30 PM77 °FPassing clouds.30 mph57%30.07 "HgN/A
4:00 PM77 °FPassing clouds.30 mph57%30.07 "HgN/A
3:30 PM77 °FPassing clouds.31 mph57%30.07 "HgN/A
3:00 PM77 °FPassing clouds.30 mph61%30.07 "HgN/A
2:30 PM79 °FPassing clouds.29 mph54%30.07 "HgN/A
2:00 PM77 °FPassing clouds.31 mph57%30.07 "HgN/A
1:30 PM77 °FPassing clouds.30 mph57%30.07 "HgN/A
1:00 PM77 °FPassing clouds.30 mph57%30.07 "HgN/A
12:30 PM75 °FPassing clouds.31 mph61%30.07 "HgN/A
12:00 PM75 °FPassing clouds.29 mph61%30.07 "HgN/A
11:30 AM75 °FPassing clouds.28 mph61%30.07 "HgN/A
11:00 AM75 °FPassing clouds.26 mph61%30.07 "HgN/A
10:30 AM73 °FScattered clouds.26 mph65%30.07 "HgN/A
10:00 AM73 °FScattered clouds.26 mph65%30.07 "HgN/A
9:30 AM72 °FPassing clouds.25 mph69%30.04 "HgN/A
9:00 AM70 °FScattered clouds.24 mph73%30.04 "HgN/A
8:30 AM70 °FScattered clouds.24 mph73%30.04 "HgN/A
8:00 AM70 °FPassing clouds.22 mph73%30.04 "HgN/A
7:30 AM68 °FPassing clouds.23 mph78%30.04 "HgN/A
7:00 AM68 °FPassing clouds.21 mph78%30.01 "HgN/A
6:30 AM70 °FPassing clouds.20 mph73%30.04 "HgN/A
6:00 AM68 °FPassing clouds.20 mph78%30.04 "HgN/A
5:30 AM70 °FPassing clouds.22 mph73%30.04 "HgN/A
5:00 AM70 °FPassing clouds.24 mph73%30.01 "HgN/A
4:30 AM70 °FPassing clouds.23 mph73%30.04 "HgN/A
3:30 AM70 °FPassing clouds.20 mph78%30.04 "HgN/A
3:00 AM70 °FPassing clouds.21 mph78%30.04 "HgN/A
2:30 AM70 °FPassing clouds.22 mph73%30.07 "HgN/A
2:00 AM70 °FPassing clouds.24 mph78%30.07 "HgN/A
Weather by CustomWeather, © 2015

See weather overviewHow to use our weather pages